Location: Auckland
(36.8670°S, 174.7670°E)
Time: 08:33:54
(UTC+12:00)

Tiros 1 despin weight - Pass Details

Date: 27 July 2019
Orbit: 594 x 642 km, 48.2° (Epoch: 24 August)

Event Time Altitude Azimuth Distance (km) Brightness Sun altitude
Rises 22:48:50 0° 276° (W) 2,847 - -62.1°
Reaches altitude 10° 22:51:20 10° 266° (W) 1,945 - -62.5°
Maximum altitude 22:55:20 32° 202° (SSW) 1,045 - -63.2°
Drops below altitude 10° 22:59:22 10° 138° (SE) 1,953 - -63.9°
Sets 23:01:52 0° 127° (SE) 2,861 - -64.3°
